SCP
1 1 0 0 0 0 0 0 0 0 0 0 0 0 0 0 0 0 0 0 0 0 0 0 0 0 0 0 0 0 0 0 0 0 0 0 0 0 0 0 0 0 0 0
1 1 0 0 0 0 0 0 0 0 0 0 0 0 0 0 0 0 0 0 0 0 0 0 0 0 0 0 0 0 0 0 0 0 0 0 0 0 0 0 0 0 0 0
0 0 0 0 0 0 0 0 0 0 0 0 0 0 0 0 0 0 0 0 0 0 0 0 0 0 0 0 0 0 0 0 0 0 0 0 0 0 0 0 0 0 0 0
0 0 0 0 0 0 0 0 0 0 0 0 0 0 0 0 0 0 0 0 0 0 0 0 0 0 0 0 0 0 0 0 0 0 0 0 0 0 0 0 0 0 0 0
0 0 0 0 0 0 0 0 0 0 0 0 0 0 0 0 0 0 0 0 0 0 0 0 0 0 0 0 0 0 0 0 0 0 0 0 0 0 0 0 0 0 0 0
0 0 0 0 0 0 0 0 0 0 0 0 0 0 0 0 0 0 0 0 0 0 0 0 0 0 0 0 0 0 0 0 0 0 0 0 0 0 0 0 0 0 0 0
0 0 0 0 0 0 0 0 0 0 0 0 0 0 0 0 0 0 0 0 0 0 0 0 0 0 0 0 0 0 0 0 0 0 0 0 0 0 0 0 0 0 0 0
0 0 0 0 0 0 0 0 0 0 0 0 0 0 0 0 0 0 0 0 0 0 0 0 0 0 0 0 0 0 0 0 0 0 0 0 0 0 0 0 0 0 0 0
0 0 0 0 0 0 0 0 0 0 0 0 0 0 0 0 0 0 0 0 0 0 0 0 0 0 0 0 0 0 0 0 0 0 0 0 0 0 0 0 0 0 0 0
0 0 0 0 0 0 0 0 0 0 0 0 0 0 0 0 0 0 0 0 0 0 0 0 0 0 0 0 0 0 0 0 0 0 0 0 0 0 0 0 0 0 0 0
0 0 0 0 0 0 0 0 0 0 0 0 0 0 0 0 0 0 0 0 0 0 0 0 0 0 0 0 0 0 0 0 0 0 0 0 0 0 0 0 0 0 0 0
0 0 0 0 0 0 0 0 0 0 0 0 0 0 0 0 0 0 0 0 0 0 0 0 0 0 0 0 0 0 0 0 0 0 0 0 0 0 0 0 0 0 0 0
0 0 0 0 0 0 0 0 0 0 0 0 0 0 0 0 0 0 0 0 0 0 0 0 0 0 0 0 0 0 0 0 0 0 0 0 0 0 0 0 0 0 0 0
0 0 0 0 0 0 0 0 0 0 0 0 0 0 0 0 0 0 0 0 0 0 0 0 0 0 0 0 0 0 0 0 0 0 0 0 0 0 0 0 0 0 0 0
0 0 0 0 0 0 0 0 0 0 0 0 0 0 0 0 0 0 0 0 0 0 0 0 0 0 0 0 0 0 0 0 0 0 0 0 0 0 0 0 0 0 0 0
0 0 0 0 0 0 0 0 0 0 0 0 0 0 0 0 0 0 0 0 0 0 0 0 0 0 0 0 0 0 0 0 0 0 0 0 0 0 0 0 0 0 0 0
0 0 0 0 0 0 0 0 0 0 0 0 0 0 0 0 0 0 0 0 0 0 0 0 0 0 0 0 0 0 0 0 0 0 0 0 0 0 0 0 0 0 0 0
0 0 0 0 0 0 0 0 0 0 0 0 0 0 0 0 0 0 0 0 0 0 0 0 0 0 0 0 0 0 0 0 0 0 0 0 0 0 0 0 0 0 0 0
0 0 0 0 0 0 0 0 0 0 0 0 0 0 0 0 0 0 0 0 0 0 0 0 0 0 0 0 0 0 0 0 0 0 0 0 0 0 0 0 0 0 0 0
0 0 0 0 0 0 0 0 0 0 0 0 0 0 0 0 0 0 0 0 0 0 0 0 0 0 0 0 0 0 0 0 0 0 0 0 0 0 0 0 0 0 0 0
0 0 0 0 0 0 0 0 0 0 0 0 0 0 0 0 0 0 0 0 0 0 0 0 0 0 0 0 0 0 0 0 0 0 0 0 0 0 0 0 0 0 0 0
0 0 0 0 0 0 0 0 0 0 0 0 0 0 0 0 0 0 0 0 0 0 0 0 0 0 0 0 0 0 0 0 0 0 0 0 0 0 0 0 0 0 0 0
0 0 0 0 0 0 0 0 0 0 0 0 0 0 0 0 0 0 0 0 0 0 0 0 0 0 0 0 0 0 0 0 0 0 0 0 0 0 0 0 0 0 0 0
0 0 0 0 0 0 0 0 0 0 0 0 0 0 0 0 0 0 0 0 0 0 0 0 0 0 0 0 0 0 0 0 0 0 0 0 0 0 0 0 0 0 0 0
0 0 0 0 0 0 0 0 0 0 0 0 0 0 0 0 0 0 0 0 0 0 0 0 0 0 0 0 0 0 0 0 0 0 0 0 0 0 0 0 0 0 0 0
0 0 0 0 0 0 0 0 0 0 0 0 0 0 0 0 0 0 0 0 0 0 0 0 0 0 0 0 0 0 0 0 0 0 0 0 0 0 0 0 0 0 0 0
Wind_Speed
3 5 3 6 6 3 4 4 3 1 2 3 3 3 2 2 2 3 2 2 3 4 4 5 5 5 5 5 6 6 7 7 6 4 4 4 4 4 4 3 4 4 4 3
6 2 2 3 5 5 5 5 2 1 2 2 1 2 2 3 3 4 4 4 3 4 5 5 5 5 5 6 6 6 6 7 6 4 4 3 4 4 3 3 4 4 3 3
5 1 3 6 5 5 2 4 4 3 2 3 2 4 3 2 1 2 2 3 3 4 5 6 6 6 6 6 7 6 7 7 7 6 4 4 3 3 3 4 4 4 4 4
4 2 5 5 3 3 1 1 4 5 4 1 1 4 5 3 3 3 4 4 4 5 4 5 6 7 6 7 6 6 7 7 7 6 5 5 4 4 4 4 4 5 4 4
3 2 4 3 1 2 2 4 4 3 3 1 0 1 7 1 4 6 6 5 5 5 5 6 6 6 6 6 6 6 6 6 6 6 5 5 4 4 4 4 5 4 4 4
3 2 2 3 3 3 5 7 6 6 5 2 2 3 7 4 6 5 4 5 5 5 5 6 6 5 5 6 6 6 6 7 7 7 6 5 6 6 6 6 5 4 3 3
4 3 3 2 4 4 6 6 5 5 4 5 2 3 9 5 6 5 5 5 5 5 5 5 6 6 6 7 7 6 6 7 7 7 6 6 6 5 5 5 5 4 3 3
4 1 2 2 3 3 3 7 6 3 4 5 2 5 7 3 3 3 3 3 4 5 5 5 6 5 6 6 6 6 6 6 7 7 6 6 6 4 4 4 4 4 3 3
6 3 1 2 2 6 4 2 4 6 1 3 5 6 7 1 2 2 3 3 5 5 5 5 5 5 5 5 5 5 6 6 6 6 6 6 6 6 6 5 4 4 4 4
7 4 1 1 4 4 4 7 5 4 2 4 7 5 5 5 7 6 5 6 6 5 5 5 5 5 4 4 4 4 5 5 5 6 6 5 6 6 6 5 6 6 5 5
4 6 1 2 2 3 3 4 5 4 4 4 4 8 6 6 6 7 7 6 6 6 6 5 4 4 4 4 4 4 5 5 5 6 6 6 6 6 6 5 6 6 5 6
3 6 2 2 2 2 3 5 7 4 3 4 3 10 5 5 6 6 7 6 5 5 5 4 4 4 4 4 4 4 4 4 4 5 5 6 6 6 6 7 7 6 6 6
6 7 4 4 5 1 2 3 4 5 5 4 3 10 4 2 3 5 6 6 5 5 4 3 3 4 4 4 3 4 4 4 4 4 5 6 6 7 7 7 7 7 6 6
6 5 6 7 6 5 3 4 5 6 4 4 8 9 7 6 6 6 6 6 5 5 5 4 4 4 4 3 3 3 3 3 3 3 4 5 6 6 6 6 6 7 6 6
5 4 3 3 2 3 4 5 7 7 7 8 8 7 11 8 8 8 6 6 5 6 6 5 5 4 4 3 3 3 3 3 2 3 4 5 5 5 6 6 7 7 7 7
4 4 2 1 1 2 3 5 6 6 5 7 6 10 9 5 3 4 6 6 7 7 7 6 5 5 4 4 3 2 2 2 1 2 3 4 5 5 6 6 6 7 7 7
3 4 3 1 3 3 6 6 8 6 7 8 8 9 4 3 6 8 8 8 9 9 7 7 6 5 5 4 3 3 2 1 1 2 3 4 4 5 5 5 6 6 6 7
6 5 4 1 2 3 8 3 6 6 7 8 8 7 6 7 6 5 7 8 9 8 7 7 6 5 4 3 2 2 1 0 1 2 3 3 4 4 5 5 5 5 4 5
4 7 5 3 0 6 7 2 5 4 6 6 8 7 4 1 2 5 6 8 10 9 7 7 6 5 4 4 3 2 1 1 1 2 3 3 3 3 4 5 5 4 4 5
5 5 6 4 1 4 6 2 2 2 5 5 5 5 3 5 1 7 5 7 8 7 6 6 5 4 4 4 4 3 2 2 3 3 3 2 2 2 3 3 3 3 3 3
2 4 4 4 2 8 8 2 2 1 6 4 4 5 7 8 8 5 2 4 6 6 6 5 5 5 5 5 5 4 4 5 5 3 2 2 2 2 2 2 2 3 3 3
7 5 4 5 3 8 3 4 5 8 4 2 3 4 7 8 6 3 3 4 5 5 6 6 5 6 5 5 6 5 6 6 3 2 2 2 2 2 1 1 2 2 3 3
6 8 7 9 8 5 2 4 4 2 3 3 3 4 5 5 5 5 4 5 5 6 6 5 6 6 5 6 7 7 7 5 4 3 3 3 2 1 1 1 1 2 2 2
3 2 3 4 6 4 4 3 4 4 5 5 4 3 3 5 5 5 5 5 5 6 6 5 6 6 7 7 8 8 6 5 5 5 4 3 2 2 1 1 1 1 1 1
2 3 2 3 5 5 4 5 8 6 4 4 3 2 2 4 4 4 5 5 6 6 5 5 6 8 9 7 8 8 6 6 6 5 5 4 3 3 2 2 2 3 3 3
2 4 5 4 2 2 5 7 9 7 6 5 4 4 2 2 4 4 5 5 5 5 5 5 7 8 8 7 8 8 7 7 7 6 5 4 4 3 3 3 3 4 6 6
Wind_Direction
61 85 144 196 194 176 156 154 163 187 137 134 172 199 212 173 164 196 229 262 287 295 299 311 316 319 321 325 331 328 328 327 332 330 328 322 318 313 311 303 300 300 295 286
58 83 188 123 105 100 113 125 133 84 82 113 142 256 246 204 204 211 222 244 269 295 309 315 318 322 324 322 325 325 325 324 328 322 307 288 288 290 288 299 314 311 309 299
128 183 111 103 102 97 104 156 174 161 73 58 73 317 262 251 209 223 237 249 269 278 292 308 316 316 323 324 323 325 322 324 325 325 318 315 311 308 321 325 323 318 314 305
92 57 99 96 96 122 168 194 145 133 116 293 121 289 282 243 256 251 252 262 272 283 292 302 309 314 319 316 320 322 323 325 326 331 335 334 328 316 305 307 306 313 316 314
84 90 100 102 120 131 134 74 92 103 116 45 25 229 287 276 258 258 251 251 261 274 287 297 301 305 311 316 324 325 328 328 331 339 340 336 328 308 305 310 316 321 322 323
71 59 91 123 81 82 107 70 56 50 67 331 233 187 279 234 227 247 243 244 256 273 289 297 304 315 316 321 330 333 336 331 337 343 345 346 339 334 335 334 331 328 323 327
42 22 21 92 89 44 72 79 31 2 6 263 252 208 254 251 228 221 229 242 255 270 283 295 307 316 318 324 331 336 339 333 339 345 347 346 343 340 338 333 332 334 331 329
135 284 344 47 125 125 101 125 147 204 243 286 304 246 257 263 239 221 223 238 260 272 276 284 292 300 307 316 327 334 335 332 339 345 343 344 346 344 337 333 331 328 323 316
150 189 358 61 103 121 117 109 153 131 180 289 288 286 302 224 245 238 245 255 261 267 275 282 293 302 306 313 319 328 332 334 339 344 344 348 349 350 344 340 338 334 333 333
133 136 337 48 74 46 111 139 98 106 137 295 300 285 263 250 243 243 243 247 256 266 277 286 292 299 306 307 315 333 337 334 338 345 348 351 346 346 345 349 350 347 344 344
99 121 59 42 150 171 111 93 102 109 147 161 291 279 232 227 224 223 233 238 245 255 267 275 284 293 303 315 329 338 340 342 345 346 345 350 347 348 351 354 349 345 345 346
100 108 124 270 283 222 173 162 146 148 208 169 198 269 270 242 236 221 231 240 245 250 258 268 281 298 310 319 326 329 331 336 338 340 345 349 347 351 357 354 349 349 347 346
128 106 82 349 339 310 173 146 137 124 116 155 199 265 292 286 251 233 232 240 246 253 263 275 290 295 296 303 313 317 322 326 335 345 350 352 352 353 353 349 346 349 350 352
108 111 155 190 220 196 195 174 151 132 152 210 230 258 289 267 251 245 236 237 239 247 255 261 273 280 282 287 297 307 316 323 337 349 352 352 348 346 345 345 348 351 354 1
99 131 189 220 223 178 208 197 176 184 192 204 240 245 261 253 234 231 228 228 233 245 249 247 252 265 274 280 291 297 307 324 340 350 349 343 339 343 350 354 354 356 5 7
80 121 100 12 9 213 250 235 202 214 213 230 259 272 257 257 227 225 224 220 228 237 240 243 245 254 261 259 265 276 295 311 339 345 336 338 345 350 355 355 357 4 7 7
95 114 101 310 324 18 282 242 195 212 213 196 223 245 260 244 229 224 219 217 224 229 231 232 235 240 247 245 235 237 264 300 345 333 334 343 347 350 349 355 6 9 7 10
121 99 106 91 41 256 247 251 186 210 244 217 231 248 235 234 244 240 215 210 223 224 224 226 226 233 237 227 212 206 211 253 318 324 329 337 345 344 347 360 6 4 3 8
118 124 108 104 108 290 299 250 172 186 281 225 223 247 246 226 4 296 226 207 216 216 212 215 214 215 216 211 195 178 199 243 289 297 305 317 333 341 349 355 353 355 6 10
65 87 106 116 144 253 256 281 177 117 296 269 207 228 180 123 66 271 244 203 214 212 206 208 205 198 208 207 175 175 209 233 254 261 274 295 313 329 338 338 340 347 1 5
79 62 110 145 218 265 252 250 126 115 257 271 207 204 172 189 209 239 248 204 203 203 205 198 192 201 213 189 169 192 215 234 241 247 265 293 304 300 308 332 343 350 3 15
165 150 167 145 184 261 252 152 178 222 251 267 232 206 200 225 242 255 238 219 204 202 203 193 195 215 211 180 177 203 227 234 228 221 246 275 292 306 328 344 344 358 11 19
187 185 181 184 208 242 245 217 255 257 260 265 251 242 217 230 239 237 233 225 216 209 207 197 199 216 214 193 188 209 229 215 203 210 233 254 273 288 305 311 330 347 4 12
248 162 162 247 268 269 269 284 305 279 257 273 266 260 207 224 240 236 232 226 222 218 212 200 197 213 224 210 206 217 221 194 194 214 228 235 243 259 266 261 250 253 280 309
226 162 183 252 291 322 347 1 334 316 300 306 309 274 237 230 247 235 233 229 224 221 213 197 203 218 228 216 216 219 208 188 199 215 223 225 227 232 242 244 235 231 234 214
195 175 177 215 257 269 295 334 340 341 342 339 343 349 339 244 255 251 242 237 227 224 212 210 218 226 232 220 223 220 201 189 196 212 220 218 218 222 224 239 271 250 239 250